Climatologie pour Saint-Brevin les Pins
Jour • Résumé pour mai 14, 2017 Système :  Métrique    Anglais   Mixte
« - 1 jour
+ 1 jour »
Jour Semaine Mois Année Personnalisé
  Maximum : Minimum : Moyenne :
Température sous abri : -17.8 °C -10.7 °C -9.4 °C
Point de rosée : -17.8 °C -12.6 °C -11 °C
Humidité : Humidity % 66 % 83 %
Vitesse du vent : 0 km/h 0 km/h 12.2 km/h
Rafale : 0 km/h - -
Direction :- - WSW
Pression : 0 hPa 34395 hPa -
Précipitations : 7.62 mm    
Historical Graphs
 
 
Tableau de données pour mai 14, 2017
Heure Tempé Pt rosée Pression Vent Vitesse Rafale Humidité Taux pluie (/hr) Soleil
-17.8 °C -17.8 °C 0 hPa Calm     Humidity % 0 mm SolarRadiationWatts/m^2 W/m2 Conditions
00:00 -9.5 °C -10.9 °C 34395 hPa SW 12.9 km/h 31.1 km/h 84 % 0 mm 0 W/m2
00:10 -9.5 °C -10.9 °C 34395 hPa SSW 18.2 km/h 38.8 km/h 85 % 0 mm 0 W/m2
00:15 -9.5 °C -10.8 °C 34395 hPa South 12.9 km/h 38.8 km/h 86 % 0 mm 0 W/m2
00:20 -9.6 °C -10.9 °C 34405.1 hPa South 23.3 km/h 38.8 km/h 86 % 0 mm 0 W/m2
00:25 -9.8 °C -10.9 °C 34405.1 hPa SSW 18.2 km/h 31.1 km/h 87 % 0 mm 0 W/m2
00:30 -9.8 °C -11.1 °C 34395 hPa South 18.2 km/h 31.1 km/h 87 % 0 mm 0 W/m2
00:35 -9.8 °C -11.1 °C 34405.1 hPa SW 7.7 km/h 33.6 km/h 87 % 0 mm 0 W/m2
00:40 -9.8 °C -11.1 °C 34405.1 hPa South 5.1 km/h 38.8 km/h 87 % 0 mm 0 W/m2
00:45 -9.9 °C -11.1 °C 34405.1 hPa SSW 7.7 km/h 38.8 km/h 87 % 0 mm 0 W/m2
00:50 -9.9 °C -11.1 °C 34395 hPa South 12.9 km/h 41.4 km/h 87 % 0 mm 0 W/m2
00:55 -9.9 °C -11.1 °C 34405.1 hPa SSW 23.3 km/h 41.4 km/h 87 % 0 mm 0 W/m2
01:00 -9.9 °C -11.1 °C 34405.1 hPa South 20.8 km/h 41.4 km/h 87 % 0 mm 0 W/m2
01:10 -9.8 °C -11 °C 34405.1 hPa SSW 23.3 km/h 33.6 km/h 87 % 0 mm 0 W/m2
01:15 -9.8 °C -11.1 °C 34405.1 hPa SW 33.6 km/h 41.4 km/h 86 % 0 mm 0 W/m2
01:20 -9.7 °C -11 °C 34405.1 hPa SSW 23.3 km/h 41.4 km/h 86 % 0 mm 0 W/m2
01:30 -9.6 °C -11 °C 34405.1 hPa SSW 15.6 km/h 33.6 km/h 85 % 0 mm 0 W/m2
01:35 -9.6 °C -11 °C 34405.1 hPa SSW 18.2 km/h 33.6 km/h 85 % 0 mm 0 W/m2
01:40 -9.6 °C -11 °C 34405.1 hPa WNW 7.7 km/h 46.7 km/h 85 % 7.62 mm 0 W/m2
01:45 -9.6 °C -11.1 °C 34418.7 hPa SW 5.1 km/h 46.7 km/h 84 % 7.62 mm 0 W/m2
01:50 -9.6 °C -11.1 °C 34418.7 hPa SW 15.6 km/h 44.1 km/h 84 % 7.62 mm 0 W/m2
01:55 -9.6 °C -11.1 °C 34418.7 hPa SW 12.9 km/h 41.4 km/h 83 % 7.62 mm 0 W/m2
02:00 -9.5 °C -11.1 °C 34418.7 hPa SW 18.2 km/h 41.4 km/h 83 % 7.62 mm 0 W/m2
02:05 -9.5 °C -11 °C 34418.7 hPa SW 7.7 km/h 44.1 km/h 84 % 7.62 mm 0 W/m2
02:10 -9.5 °C -11 °C 34418.7 hPa SW 33.6 km/h 51.8 km/h 84 % 7.62 mm 0 W/m2
02:15 -9.5 °C -10.9 °C 34418.7 hPa WSW 23.3 km/h 51.8 km/h 85 % 7.62 mm 0 W/m2
02:20 -9.6 °C -10.9 °C 34418.7 hPa SSW 31.1 km/h 41.4 km/h 85 % 7.62 mm 0 W/m2
02:25 -9.6 °C -10.9 °C 34418.7 hPa WSW 10.3 km/h 41.4 km/h 85 % 7.62 mm 0 W/m2
02:30 -9.6 °C -10.9 °C 34418.7 hPa SSW 25.9 km/h 41.4 km/h 85 % 7.62 mm 0 W/m2
02:35 -9.6 °C -10.8 °C 34418.7 hPa SW 23.3 km/h 38.8 km/h 86 % 7.62 mm 0 W/m2
02:40 -9.6 °C -10.8 °C 34428.8 hPa South 15.6 km/h 38.8 km/h 86 % 0 mm 0 W/m2
02:45 -9.6 °C -10.8 °C 34428.8 hPa South 12.9 km/h 36.2 km/h 87 % 0 mm 0 W/m2
02:55 -9.6 °C -10.8 °C 34428.8 hPa WSW 25.9 km/h 41.4 km/h 87 % 0 mm 0 W/m2
03:00 -9.7 °C -10.8 °C 34428.8 hPa West 28.5 km/h 41.4 km/h 87 % 0 mm 0 W/m2
03:05 -9.7 °C -10.9 °C 34428.8 hPa WSW 23.3 km/h 36.2 km/h 87 % 0 mm 0 W/m2
03:10 -9.7 °C -10.9 °C 34428.8 hPa WSW 20.8 km/h 33.6 km/h 87 % 0 mm 0 W/m2
03:15 -9.7 °C -10.8 °C 34428.8 hPa SW 12.9 km/h 33.6 km/h 88 % 0 mm 0 W/m2
03:25 -9.8 °C -10.8 °C 34442.4 hPa West 20.8 km/h 31.1 km/h 88 % 0 mm 0 W/m2
03:30 -9.8 °C -10.8 °C 34442.4 hPa SSW 10.3 km/h 31.1 km/h 88 % 0 mm 0 W/m2
03:35 -9.8 °C -10.7 °C 34442.4 hPa SW 2.6 km/h 31.1 km/h 89 % 0 mm 0 W/m2
03:40 -9.7 °C -10.7 °C 34428.8 hPa WSW 15.6 km/h 33.6 km/h 89 % 0 mm 0 W/m2
03:45 -9.7 °C -10.8 °C 34428.8 hPa SW 12.9 km/h 33.6 km/h 88 % 0 mm 0 W/m2
03:50 -9.7 °C -10.8 °C 34428.8 hPa SW 28.5 km/h 28.5 km/h 88 % 0 mm 0 W/m2
03:55 -9.6 °C -10.8 °C 34428.8 hPa SW 28.5 km/h 36.2 km/h 87 % 0 mm 0 W/m2
04:00 -9.6 °C -10.8 °C 34428.8 hPa SSW 12.9 km/h 36.2 km/h 87 % 0 mm 0 W/m2
04:05 -9.6 °C -10.8 °C 34442.4 hPa SW 18.2 km/h 36.2 km/h 87 % 0 mm 0 W/m2
04:10 -9.6 °C -10.8 °C 34442.4 hPa WSW 5.1 km/h 38.8 km/h 87 % 0 mm 0 W/m2
04:15 -9.7 °C -10.9 °C 34442.4 hPa West 23.3 km/h 38.8 km/h 87 % 0 mm 0 W/m2
04:20 -9.8 °C -10.9 °C 34442.4 hPa SW 31.1 km/h 38.8 km/h 87 % 0 mm 0 W/m2
04:25 -9.8 °C -10.9 °C 34442.4 hPa SW 25.9 km/h 38.8 km/h 88 % 0 mm 0 W/m2
04:30 -9.9 °C -11 °C 34442.4 hPa WSW 23.3 km/h 38.8 km/h 88 % 0 mm 0 W/m2
04:35 -9.9 °C -10.9 °C 34442.4 hPa West 10.3 km/h 36.2 km/h 89 % 0 mm 0 W/m2
04:40 -9.9 °C -10.9 °C 34442.4 hPa West 18.2 km/h 36.2 km/h 89 % 0 mm 0 W/m2
04:45 -10 °C -10.9 °C 34452.6 hPa SW 18.2 km/h 36.2 km/h 90 % 0 mm 0 W/m2
04:50 -10.1 °C -10.9 °C 34452.6 hPa WSW 25.9 km/h 38.8 km/h 90 % 0 mm 0 W/m2
04:55 -10.1 °C -10.8 °C 34452.6 hPa WSW 25.9 km/h 38.8 km/h 91 % 0 mm 0 W/m2
05:00 -10.1 °C -10.9 °C 34452.6 hPa West 15.6 km/h 33.6 km/h 91 % 0 mm 0 W/m2
05:10 -10.1 °C -10.9 °C 34452.6 hPa West 7.7 km/h 36.2 km/h 91 % 0 mm 0 W/m2
05:15 -10.1 °C -10.9 °C 34452.6 hPa WNW 20.8 km/h 33.6 km/h 91 % 0 mm 0 W/m2
05:20 -10.1 °C -10.9 °C 34452.6 hPa West 5.1 km/h 38.8 km/h 91 % 0 mm 0 W/m2
05:25 -10.1 °C -10.9 °C 34462.7 hPa West 12.9 km/h 38.8 km/h 91 % 0 mm 0 W/m2
05:30 -10.2 °C -11 °C 34462.7 hPa West 5.1 km/h 36.2 km/h 91 % 0 mm 0 W/m2
05:35 -10.2 °C -11 °C 34462.7 hPa WSW 33.6 km/h 33.6 km/h 91 % 0 mm 0 W/m2
05:40 -10.2 °C -10.9 °C 34462.7 hPa SW 12.9 km/h 33.6 km/h 92 % 0 mm 0 W/m2
05:45 -10.2 °C -10.9 °C 34476.3 hPa West 5.1 km/h 33.6 km/h 92 % 0 mm 0 W/m2
05:55 -10.2 °C -10.9 °C 34476.3 hPa WSW 5.1 km/h 33.6 km/h 92 % 0 mm 0 W/m2
06:00 -10.2 °C -10.9 °C 34476.3 hPa WNW 23.3 km/h 36.2 km/h 92 % 0 mm 0 W/m2
06:05 -10.2 °C -10.9 °C 34476.3 hPa West 7.7 km/h 36.2 km/h 92 % 0 mm 0 W/m2
06:10 -10.3 °C -11 °C 34476.3 hPa West 12.9 km/h 33.6 km/h 92 % 0 mm 0 W/m2
06:15 -10.3 °C -11 °C 34476.3 hPa WSW 12.9 km/h 31.1 km/h 92 % 0 mm 0 W/m2
06:20 -10.3 °C -11.1 °C 34486.4 hPa West 12.9 km/h 31.1 km/h 92 % 0 mm 0 W/m2
06:25 -10.4 °C -11.1 °C 34486.4 hPa SW 10.3 km/h 38.8 km/h 92 % 0 mm 0 W/m2
06:30 -10.4 °C -11.1 °C 34486.4 hPa West 10.3 km/h 38.8 km/h 92 % 0 mm 0 W/m2
06:35 -10.4 °C -11.1 °C 34486.4 hPa West 12.9 km/h 28.5 km/h 92 % 0 mm 0 W/m2
06:40 -10.4 °C -11.1 °C 34486.4 hPa West 5.1 km/h 31.1 km/h 92 % 0 mm 5 W/m2
06:45 -10.4 °C -11.1 °C 34486.4 hPa West 12.9 km/h 31.1 km/h 92 % 0 mm 7 W/m2
06:50 -10.4 °C -11.2 °C 34496.6 hPa WNW 12.9 km/h 28.5 km/h 92 % 0 mm 11 W/m2
06:55 -10.4 °C -11.2 °C 34496.6 hPa West 18.2 km/h 31.1 km/h 92 % 0 mm 14 W/m2
07:00 -10.4 °C -11.2 °C 34496.6 hPa WSW 12.9 km/h 31.1 km/h 92 % 0 mm 18 W/m2
07:05 -10.4 °C -11.2 °C 34496.6 hPa WSW 7.7 km/h 25.9 km/h 92 % 0 mm 21 W/m2
07:10 -10.5 °C -11.2 °C 34496.6 hPa West 5.1 km/h 25.9 km/h 92 % 0 mm 25 W/m2
07:15 -10.4 °C -11.2 °C 34496.6 hPa West 10.3 km/h 23.3 km/h 92 % 0 mm 28 W/m2
07:20 -10.4 °C -11.2 °C 34510.1 hPa West 10.3 km/h 25.9 km/h 92 % 0 mm 30 W/m2
07:25 -10.4 °C -11.1 °C 34510.1 hPa West 12.9 km/h 25.9 km/h 92 % 0 mm 33 W/m2
07:30 -10.4 °C -11.1 °C 34510.1 hPa SW 5.1 km/h 25.9 km/h 92 % 0 mm 37 W/m2
07:35 -10.4 °C -11.1 °C 34510.1 hPa West 12.9 km/h 25.9 km/h 92 % 0 mm 42 W/m2
07:40 -10.4 °C -11.1 °C 34510.1 hPa WNW 5.1 km/h 25.9 km/h 92 % 0 mm 53 W/m2
07:45 -10.4 °C -11.1 °C 34520.3 hPa West 7.7 km/h 25.9 km/h 92 % 0 mm 56 W/m2
07:50 -10.3 °C -11.1 °C 34520.3 hPa West 5.1 km/h 25.9 km/h 92 % 0 mm 63 W/m2
07:55 -10.3 °C -11 °C 34520.3 hPa West 28.5 km/h 28.5 km/h 92 % 0 mm 63 W/m2
08:00 -10.2 °C -11.1 °C 34520.3 hPa WSW 12.9 km/h 28.5 km/h 91 % 0 mm 63 W/m2
08:10 -10.2 °C -11.1 °C 34520.3 hPa SW 10.3 km/h 36.2 km/h 90 % 0 mm 109 W/m2
08:15 -10.1 °C -11 °C 34533.8 hPa West 18.2 km/h 36.2 km/h 90 % 0 mm 116 W/m2
08:20 -10.1 °C -11.1 °C 34533.8 hPa Calm   23.3 km/h 89 % 0 mm 232 W/m2
08:25 -10 °C -11 °C 34533.8 hPa West 10.3 km/h 23.3 km/h 89 % 0 mm 81 W/m2
08:30 -9.9 °C -10.9 °C 34533.8 hPa West 15.6 km/h 23.3 km/h 89 % 0 mm 251 W/m2
08:35 -9.8 °C -10.8 °C 34533.8 hPa WSW 2.6 km/h 23.3 km/h 89 % 0 mm 220 W/m2
08:40 -9.8 °C -10.9 °C 34544 hPa WNW 18.2 km/h 28.5 km/h 87 % 0 mm 308 W/m2
08:45 -9.8 °C -11.1 °C 34544 hPa WNW 10.3 km/h 28.5 km/h 86 % 0 mm 308 W/m2
08:55 -9.6 °C -10.8 °C 34554.1 hPa WNW 12.9 km/h 25.9 km/h 86 % 0 mm 357 W/m2
09:00 -9.4 °C -10.8 °C 34554.1 hPa West 10.3 km/h 28.5 km/h 85 % 0 mm 369 W/m2
09:05 -9.6 °C -10.9 °C 34554.1 hPa West 15.6 km/h 28.5 km/h 85 % 0 mm 339 W/m2
09:10 -9.6 °C -10.8 °C 34567.7 hPa WNW 7.7 km/h 25.9 km/h 86 % 0 mm 297 W/m2
09:15 -9.4 °C -10.6 °C 34567.7 hPa NW 10.3 km/h 25.9 km/h 87 % 0 mm 487 W/m2
09:20 -9.5 °C -10.9 °C 34567.7 hPa West 10.3 km/h 25.9 km/h 85 % 0 mm 109 W/m2
09:25 -9.8 °C -11.1 °C 34567.7 hPa West 12.9 km/h 25.9 km/h 85 % 0 mm 397 W/m2
09:30 -9.6 °C -10.9 °C 34567.7 hPa WSW 7.7 km/h 25.9 km/h 86 % 0 mm 485 W/m2
09:40 -9.3 °C -10.8 °C 34567.7 hPa West 12.9 km/h 31.1 km/h 84 % 0 mm 262 W/m2
09:45 -9.6 °C -11 °C 34567.7 hPa West 5.1 km/h 31.1 km/h 84 % 0 mm 176 W/m2
09:50 -9.3 °C -10.8 °C 34577.8 hPa WNW 12.9 km/h 28.5 km/h 84 % 0 mm 411 W/m2
09:55 -9.2 °C -10.8 °C 34577.8 hPa West 15.6 km/h 28.5 km/h 83 % 0 mm 568 W/m2
10:00 -9.1 °C -10.7 °C 34577.8 hPa WSW 12.9 km/h 28.5 km/h 83 % 0 mm 631 W/m2
10:05 -9.1 °C -10.8 °C 34591.4 hPa West 15.6 km/h 28.5 km/h 82 % 0 mm 550 W/m2
10:10 -9.1 °C -10.7 °C 34591.4 hPa WNW 10.3 km/h 28.5 km/h 83 % 0 mm 585 W/m2
10:15 -9.1 °C -10.8 °C 34591.4 hPa WSW 10.3 km/h 20.8 km/h 82 % 0 mm 619 W/m2
10:20 -9.1 °C -10.7 °C 34591.4 hPa West 18.2 km/h 23.3 km/h 82 % 0 mm 682 W/m2
10:25 -9.1 °C -10.6 °C 34591.4 hPa SW 10.3 km/h 25.9 km/h 84 % 0 mm 613 W/m2
10:30 -9.1 °C -10.6 °C 34601.5 hPa WSW 10.3 km/h 25.9 km/h 84 % 0 mm 633 W/m2
10:35 -9.1 °C -10.9 °C 34601.5 hPa SW 20.8 km/h 25.9 km/h 81 % 0 mm 167 W/m2
10:40 -9 °C -10.5 °C 34601.5 hPa WNW 7.7 km/h 25.9 km/h 84 % 0 mm 650 W/m2
10:45 -9 °C -10.7 °C 34601.5 hPa WSW 12.9 km/h 31.1 km/h 82 % 0 mm 661 W/m2
10:50 -8.7 °C -10.3 °C 34611.7 hPa WSW 12.9 km/h 31.1 km/h 83 % 0 mm 680 W/m2
10:55 -8.7 °C -10.8 °C 34611.7 hPa West 7.7 km/h 28.5 km/h 79 % 0 mm 700 W/m2
11:00 -8.9 °C -10.9 °C 34611.7 hPa WSW 25.9 km/h 28.5 km/h 79 % 0 mm 679 W/m2
11:10 -8.6 °C -10.6 °C 34625.2 hPa WSW 20.8 km/h 31.1 km/h 80 % 0 mm 682 W/m2
11:15 -8.7 °C -10.9 °C 34625.2 hPa WSW 18.2 km/h 33.6 km/h 77 % 0 mm 722 W/m2
11:20 -8.9 °C -11 °C 34625.2 hPa WNW 20.8 km/h 33.6 km/h 78 % 0 mm 740 W/m2
11:25 -8.8 °C -10.7 °C 34625.2 hPa West 15.6 km/h 28.5 km/h 80 % 0 mm 712 W/m2
11:30 -8.8 °C -10.9 °C 34625.2 hPa West 18.2 km/h 28.5 km/h 78 % 0 mm 775 W/m2
11:35 -8.6 °C -10.7 °C 34625.2 hPa West 12.9 km/h 28.5 km/h 79 % 0 mm 777 W/m2
11:40 -8.5 °C -10.6 °C 34635.4 hPa West 10.3 km/h 28.5 km/h 79 % 0 mm 573 W/m2
11:45 -8.6 °C -10.5 °C 34635.4 hPa NW 7.7 km/h 31.1 km/h 80 % 0 mm 737 W/m2
11:55 -8.3 °C -10.7 °C 34635.4 hPa SW 2.6 km/h 25.9 km/h 76 % 0 mm 812 W/m2
12:00 -8.5 °C -10.8 °C 34635.4 hPa SW 15.6 km/h 25.9 km/h 77 % 0 mm 849 W/m2
12:05 -8.6 °C -10.6 °C 34635.4 hPa WSW 18.2 km/h 31.1 km/h 79 % 0 mm 673 W/m2
12:10 -8.7 °C -10.7 °C 34635.4 hPa WNW 12.9 km/h 31.1 km/h 79 % 0 mm 810 W/m2
12:15 -8.4 °C -10.3 °C 34645.6 hPa SW 15.6 km/h 28.5 km/h 80 % 0 mm 812 W/m2
12:20 -8.4 °C -10.8 °C 34645.6 hPa WSW 15.6 km/h 28.5 km/h 76 % 0 mm 828 W/m2
12:25 -8.7 °C -11 °C 34645.6 hPa WNW 5.1 km/h 31.1 km/h 77 % 0 mm 782 W/m2
12:30 -8.4 °C -10.7 °C 34645.6 hPa North 18.2 km/h 31.1 km/h 77 % 0 mm 803 W/m2
12:40 -8.4 °C -10.4 °C 34645.6 hPa Calm   23.3 km/h 79 % 0 mm 784 W/m2
12:45 -8.5 °C -10.8 °C 34659.1 hPa WSW 10.3 km/h 31.1 km/h 76 % 0 mm 786 W/m2
12:50 -8.6 °C -10.6 °C 34659.1 hPa South 10.3 km/h 31.1 km/h 79 % 0 mm 817 W/m2
12:55 -8.2 °C -10.3 °C 34659.1 hPa Calm   28.5 km/h 79 % 0 mm 896 W/m2
13:00 -8.1 °C -10.3 °C 34659.1 hPa West 18.2 km/h 25.9 km/h 77 % 0 mm 861 W/m2
13:05 -8.1 °C -10.7 °C 34659.1 hPa WSW 25.9 km/h 25.9 km/h 74 % 0 mm 879 W/m2
13:10 -8.2 °C -10.6 °C 34659.1 hPa SSW 7.7 km/h 25.9 km/h 76 % 0 mm 918 W/m2
13:15 -8.1 °C -10.4 °C 34659.1 hPa West 18.2 km/h 25.9 km/h 77 % 0 mm 907 W/m2
13:25 -8.3 °C -10.7 °C 34659.1 hPa WSW 12.9 km/h 28.5 km/h 76 % 0 mm 904 W/m2
13:30 -8.5 °C -10.9 °C 34669.3 hPa WSW 28.5 km/h 31.1 km/h 75 % 0 mm 935 W/m2
13:35 -8.4 °C -10.6 °C 34669.3 hPa SW 7.7 km/h 31.1 km/h 77 % 0 mm 907 W/m2
13:40 -8.5 °C -11 °C 34669.3 hPa SW 15.6 km/h 31.1 km/h 75 % 0 mm 951 W/m2
13:45 -8.7 °C -11.1 °C 34669.3 hPa West 12.9 km/h 31.1 km/h 76 % 0 mm 874 W/m2
13:50 -8.7 °C -10.9 °C 34669.3 hPa SW 12.9 km/h 31.1 km/h 77 % 0 mm 889 W/m2
13:55 -8.5 °C -10.8 °C 34669.3 hPa WSW 10.3 km/h 31.1 km/h 76 % 0 mm 803 W/m2
14:00 -8.3 °C -10.8 °C 34669.3 hPa SW 18.2 km/h 31.1 km/h 75 % 0 mm 826 W/m2
14:10 -8.3 °C -10.8 °C 34669.3 hPa West 7.7 km/h 28.5 km/h 75 % 0 mm 916 W/m2
14:15 -8.2 °C -10.3 °C 34669.3 hPa SW 10.3 km/h 25.9 km/h 78 % 0 mm 947 W/m2
14:20 -8.2 °C -10.7 °C 34669.3 hPa WNW 15.6 km/h 25.9 km/h 75 % 0 mm 921 W/m2
14:25 -8.3 °C -10.7 °C 34669.3 hPa SW 5.1 km/h 31.1 km/h 76 % 0 mm 947 W/m2
14:30 -8 °C -10.3 °C 34669.3 hPa West 25.9 km/h 31.1 km/h 77 % 0 mm 914 W/m2
14:35 -8.2 °C -10.4 °C 34682.8 hPa West 25.9 km/h 31.1 km/h 77 % 0 mm 828 W/m2
14:40 -8.4 °C -10.6 °C 34682.8 hPa WSW 18.2 km/h 31.1 km/h 78 % 0 mm 904 W/m2
14:45 -8.3 °C -10.6 °C 34682.8 hPa SW 10.3 km/h 31.1 km/h 77 % 0 mm 904 W/m2
14:55 -7.9 °C -10.3 °C 34682.8 hPa WNW 25.9 km/h 25.9 km/h 76 % 0 mm 865 W/m2
15:00 -8.2 °C -10.5 °C 34682.8 hPa West 15.6 km/h 28.5 km/h 77 % 0 mm 842 W/m2
15:05 -8.2 °C -10.2 °C 34682.8 hPa SW 2.6 km/h 28.5 km/h 79 % 0 mm 881 W/m2
15:10 -8 °C -10.3 °C 34682.8 hPa SSW 18.2 km/h 28.5 km/h 77 % 0 mm 858 W/m2
15:15 -8.3 °C -10.7 °C 34682.8 hPa West 10.3 km/h 28.5 km/h 76 % 0 mm 851 W/m2
15:20 -8.4 °C -10.8 °C 34682.8 hPa WSW 18.2 km/h 33.6 km/h 76 % 0 mm 858 W/m2
15:25 -8.2 °C -10.8 °C 34682.8 hPa SW 15.6 km/h 33.6 km/h 74 % 0 mm 483 W/m2
15:30 -8.6 °C -10.8 °C 34682.8 hPa SW 5.1 km/h 28.5 km/h 77 % 0 mm 693 W/m2
15:40 -8.3 °C -10.8 °C 34693 hPa WSW 25.9 km/h 33.6 km/h 75 % 0 mm 786 W/m2
15:45 -8.4 °C -10.8 °C 34693 hPa South 23.3 km/h 33.6 km/h 76 % 0 mm 891 W/m2
15:50 -8.3 °C -10.7 °C 34693 hPa WSW 20.8 km/h 33.6 km/h 76 % 0 mm 830 W/m2
15:55 -8.3 °C -10.3 °C 34693 hPa NW 5.1 km/h 31.1 km/h 79 % 0 mm 580 W/m2
16:00 -8.2 °C -10.6 °C 34693 hPa WSW 23.3 km/h 25.9 km/h 76 % 0 mm 557 W/m2
16:05 -8.3 °C -10.8 °C 34693 hPa WNW 10.3 km/h 23.3 km/h 75 % 0 mm 531 W/m2
16:10 -8.2 °C -10.6 °C 34693 hPa West 20.8 km/h 23.3 km/h 76 % 0 mm 856 W/m2
16:15 -8.4 °C -10.9 °C 34693 hPa WSW 10.3 km/h 25.9 km/h 75 % 0 mm 758 W/m2
16:25 -8.7 °C -11.1 °C 34693 hPa SW 10.3 km/h 25.9 km/h 76 % 0 mm 443 W/m2
16:30 -8.6 °C -10.8 °C 34693 hPa West 12.9 km/h 25.9 km/h 78 % 0 mm 577 W/m2
16:35 -8.4 °C -10.8 °C 34693 hPa WSW 18.2 km/h 23.3 km/h 76 % 0 mm 670 W/m2
16:40 -8.5 °C -11 °C 34693 hPa West 12.9 km/h 23.3 km/h 75 % 0 mm 670 W/m2
16:45 -8.6 °C -10.9 °C 34693 hPa NW 10.3 km/h 28.5 km/h 76 % 0 mm 364 W/m2
16:50 -8.7 °C -11 °C 34693 hPa West 12.9 km/h 28.5 km/h 77 % 0 mm 383 W/m2
16:55 -8.8 °C -11.2 °C 34693 hPa SSW 5.1 km/h 23.3 km/h 76 % 0 mm 406 W/m2
17:00 -8.7 °C -10.8 °C 34693 hPa WNW 23.3 km/h 23.3 km/h 78 % 0 mm 429 W/m2
17:05 -8.4 °C -10.7 °C 34693 hPa West 7.7 km/h 25.9 km/h 77 % 0 mm 429 W/m2
17:10 -8.4 °C -10.8 °C 34693 hPa West 15.6 km/h 25.9 km/h 76 % 0 mm 654 W/m2
17:15 -8.4 °C -10.8 °C 34693 hPa WSW 18.2 km/h 23.3 km/h 76 % 0 mm 476 W/m2
17:20 -8.7 °C -11.2 °C 34693 hPa West 12.9 km/h 25.9 km/h 75 % 0 mm 313 W/m2
17:25 -8.8 °C -11.1 °C 34693 hPa WSW 12.9 km/h 25.9 km/h 77 % 0 mm 306 W/m2
17:30 -8.8 °C -11 °C 34693 hPa SW 7.7 km/h 25.9 km/h 77 % 0 mm 383 W/m2
17:35 -8.7 °C -10.8 °C 34693 hPa WSW 10.3 km/h 23.3 km/h 78 % 0 mm 353 W/m2
17:40 -8.8 °C -10.8 °C 34693 hPa WNW 10.3 km/h 23.3 km/h 79 % 0 mm 476 W/m2
17:45 -8.9 °C -11.2 °C 34693 hPa SSW 15.6 km/h 25.9 km/h 77 % 0 mm 355 W/m2
17:55 -8.8 °C -10.9 °C 34682.8 hPa WSW 12.9 km/h 20.8 km/h 78 % 0 mm 360 W/m2
18:00 -8.8 °C -11.5 °C 34682.8 hPa Calm   20.8 km/h 73 % 0 mm 410 W/m2
18:05 -8.7 °C -11.2 °C 34693 hPa WSW 12.9 km/h 23.3 km/h 75 % 0 mm 345 W/m2
18:10 -8.8 °C -11.1 °C 34682.8 hPa WSW 12.9 km/h 23.3 km/h 76 % 0 mm 202 W/m2
18:15 -8.9 °C -11.3 °C 34682.8 hPa West 10.3 km/h 20.8 km/h 76 % 0 mm 223 W/m2
18:20 -8.8 °C -11.2 °C 34693 hPa Calm   20.8 km/h 76 % 0 mm 230 W/m2
18:25 -8.8 °C -11.1 °C 34693 hPa West 18.2 km/h 23.3 km/h 77 % 0 mm 244 W/m2
18:30 -8.8 °C -10.9 °C 34693 hPa SW 10.3 km/h 25.9 km/h 78 % 0 mm 290 W/m2
18:40 -8.9 °C -11.2 °C 34693 hPa WSW 10.3 km/h 23.3 km/h 77 % 0 mm 167 W/m2
18:45 -9 °C -11.2 °C 34693 hPa WSW 15.6 km/h 23.3 km/h 78 % 0 mm 162 W/m2
18:50 -9 °C -11 °C 34693 hPa SW 5.1 km/h 23.3 km/h 79 % 0 mm 142 W/m2
18:55 -9 °C -11 °C 34693 hPa SW 7.7 km/h 18.2 km/h 79 % 0 mm 114 W/m2
19:00 -9.1 °C -11.1 °C 34693 hPa WSW 12.9 km/h 25.9 km/h 79 % 0 mm 130 W/m2
19:05 -9.1 °C -10.9 °C 34693 hPa WSW 5.1 km/h 25.9 km/h 81 % 0 mm 146 W/m2
19:10 -9.1 °C -11 °C 34693 hPa SW 2.6 km/h 23.3 km/h 80 % 0 mm 76 W/m2
19:15 -9.1 °C -10.9 °C 34693 hPa WSW 12.9 km/h 23.3 km/h 81 % 0 mm 95 W/m2
19:25 -9.2 °C -11 °C 34703.1 hPa WNW 10.3 km/h 23.3 km/h 81 % 0 mm 98 W/m2
19:30 -9.1 °C -10.9 °C 34693 hPa SW 2.6 km/h 18.2 km/h 81 % 0 mm 230 W/m2
19:35 -8.8 °C -10.8 °C 34693 hPa SSW 15.6 km/h 18.2 km/h 80 % 0 mm 232 W/m2
19:40 -8.8 °C -11.5 °C 34693 hPa WSW 23.3 km/h 28.5 km/h 73 % 0 mm 200 W/m2
19:45 -9 °C -12.6 °C 34693 hPa West 12.9 km/h 28.5 km/h 66 % 0 mm 156 W/m2
19:50 -9 °C -12.3 °C 34693 hPa SW 7.7 km/h 23.3 km/h 68 % 0 mm 250 W/m2
19:55 -8.9 °C -12.3 °C 34693 hPa SW 10.3 km/h 20.8 km/h 67 % 0 mm 93 W/m2
20:00 -8.9 °C -12 °C 34703.1 hPa West 5.1 km/h 20.8 km/h 70 % 0 mm 171 W/m2
20:10 -9 °C -11.3 °C 34703.1 hPa SSW 7.7 km/h 18.2 km/h 76 % 0 mm 116 W/m2
20:15 -9.1 °C -11.7 °C 34703.1 hPa SW 2.6 km/h 15.6 km/h 74 % 0 mm 97 W/m2
20:20 -9.2 °C -11.9 °C 34703.1 hPa SE 2.6 km/h 18.2 km/h 72 % 0 mm 77 W/m2
20:25 -9.3 °C -11.9 °C 34703.1 hPa WSW 2.6 km/h 18.2 km/h 73 % 0 mm 53 W/m2
20:30 -9.3 °C -12 °C 34703.1 hPa SSW 7.7 km/h 18.2 km/h 73 % 0 mm 62 W/m2
20:35 -9.3 °C -11.9 °C 34716.7 hPa SW 5.1 km/h 15.6 km/h 74 % 0 mm 63 W/m2
20:40 -9.4 °C -11.8 °C 34703.1 hPa WSW 12.9 km/h 15.6 km/h 75 % 0 mm 30 W/m2
20:45 -9.4 °C -11.7 °C 34703.1 hPa Calm   15.6 km/h 77 % 0 mm 23 W/m2
20:50 -9.5 °C -11.5 °C 34703.1 hPa West 12.9 km/h 18.2 km/h 79 % 0 mm 21 W/m2
20:55 -9.4 °C -11.3 °C 34716.7 hPa Calm   18.2 km/h 80 % 0 mm 26 W/m2
21:00 -9.4 °C -11.3 °C 34716.7 hPa SW 5.1 km/h 18.2 km/h 80 % 0 mm 32 W/m2
21:05 -9.5 °C -11.4 °C 34716.7 hPa Calm   18.2 km/h 80 % 0 mm 21 W/m2
21:10 -9.5 °C -11.4 °C 34703.1 hPa SSW 5.1 km/h 10.3 km/h 80 % 0 mm 19 W/m2
21:15 -9.6 °C -11.6 °C 34703.1 hPa SSW 5.1 km/h 12.9 km/h 79 % 0 mm 14 W/m2
21:20 -9.6 °C -11.6 °C 34703.1 hPa SSW 10.3 km/h 18.2 km/h 79 % 0 mm 11 W/m2
21:25 -9.6 °C -11.6 °C 34703.1 hPa SSW 5.1 km/h 18.2 km/h 79 % 0 mm 7 W/m2
21:30 -9.7 °C -11.6 °C 34703.1 hPa SSW 2.6 km/h 15.6 km/h 80 % 0 mm 5 W/m2
21:35 -9.8 °C -11.6 °C 34703.1 hPa SSW 5.1 km/h 12.9 km/h 81 % 0 mm 0 W/m2
21:40 -9.9 °C -11.6 °C 34716.7 hPa Calm   7.7 km/h 82 % 0 mm 0 W/m2
21:45 -10.1 °C -11.6 °C 34716.7 hPa Calm   5.1 km/h 84 % 0 mm 0 W/m2
21:50 -10.3 °C -11.7 °C 34716.7 hPa Calm   10.3 km/h 85 % 0 mm 0 W/m2
21:55 -10.3 °C -11.6 °C 34716.7 hPa Calm   10.3 km/h 86 % 0 mm 0 W/m2
22:00 -10.2 °C -11.4 °C 34716.7 hPa SSW 2.6 km/h 12.9 km/h 87 % 0 mm 0 W/m2
22:05 -10.2 °C -11.4 °C 34726.8 hPa SSW 5.1 km/h 12.9 km/h 87 % 0 mm 0 W/m2
22:10 -10.2 °C -11.3 °C 34726.8 hPa SSW 5.1 km/h 12.9 km/h 88 % 0 mm 0 W/m2
22:15 -10.2 °C -11.3 °C 34726.8 hPa Calm   12.9 km/h 88 % 0 mm 0 W/m2
22:25 -10.2 °C -11.2 °C 34726.8 hPa SSW 5.1 km/h 10.3 km/h 89 % 0 mm 0 W/m2
22:30 -10.2 °C -11.2 °C 34726.8 hPa SSW 7.7 km/h 12.9 km/h 89 % 0 mm 0 W/m2
22:35 -10.2 °C -11.1 °C 34726.8 hPa SSW 2.6 km/h 18.2 km/h 90 % 0 mm 0 W/m2
22:40 -10.2 °C -11.2 °C 34726.8 hPa SSW 7.7 km/h 18.2 km/h 89 % 0 mm 0 W/m2
22:45 -10.2 °C -11.2 °C 34726.8 hPa SSW 7.7 km/h 12.9 km/h 90 % 0 mm 0 W/m2
22:50 -10.2 °C -11.2 °C 34726.8 hPa SSW 2.6 km/h 10.3 km/h 90 % 0 mm 0 W/m2
22:55 -10.2 °C -11.1 °C 34726.8 hPa SSW 7.7 km/h 12.9 km/h 90 % 0 mm 0 W/m2
23:00 -10.2 °C -11.2 °C 34726.8 hPa SSW 7.7 km/h 12.9 km/h 90 % 0 mm 0 W/m2
23:10 -10.3 °C -11.3 °C 34726.8 hPa SSW 2.6 km/h 12.9 km/h 89 % 0 mm 0 W/m2
23:15 -10.3 °C -11.3 °C 34726.8 hPa South 7.7 km/h 12.9 km/h 89 % 0 mm 0 W/m2
23:20 -10.4 °C -11.3 °C 34726.8 hPa SSE 2.6 km/h 15.6 km/h 89 % 0 mm 0 W/m2
23:25 -10.4 °C -11.4 °C 34740.4 hPa SSW 5.1 km/h 15.6 km/h 89 % 0 mm 0 W/m2
23:30 -10.4 °C -11.4 °C 34726.8 hPa Calm   12.9 km/h 89 % 0 mm 0 W/m2
23:35 -10.5 °C -11.4 °C 34726.8 hPa SSW 5.1 km/h 7.7 km/h 90 % 0 mm 0 W/m2
23:40 -10.6 °C -11.5 °C 34726.8 hPa SSW 2.6 km/h 7.7 km/h 90 % 0 mm 0 W/m2
23:45 -10.6 °C -11.5 °C 34726.8 hPa SSW 2.6 km/h 7.7 km/h 90 % 0 mm 0 W/m2
23:50 -10.7 °C -11.6 °C 34726.8 hPa Calm   7.7 km/h 90 % 0 mm 0 W/m2
23:55 -10.7 °C -11.5 °C 34726.8 hPa Calm   10.3 km/h 91 % 0 mm 0 W/m2
Avec l'autorisation de Weather Underground - 1.5 mb